This is the latest recevied weather packets stored in our database for station/object KC5DAQ-28. If no packets are shown the sender has not sent any weather packets the latest 10 day(s).
| Time | Temp. | Humidity | Pressure | Rain* | Wind** | Luminosity | Snow |
|---|---|---|---|---|---|---|---|
| 1777403405 | 32.22° C | 63% | 1006.8 hPa | 0 mm | - | 1067 W/m² | - |
| 1777403344 | 32.22° C | 63% | 1006.9 hPa | 0 mm | - | 1067 W/m² | - |
| 1777403283 | 32.22° C | 63% | 1006.9 hPa | 0 mm | - | 1067 W/m² | - |
| 1777403223 | 32.22° C | 63% | 1006.9 hPa | 0 mm | - | 1067 W/m² | - |
| 1777403163 | 32.22° C | 63% | 1006.9 hPa | 0 mm | - | 1067 W/m² | - |
| 1777403105 | 32.22° C | 63% | 1007 hPa | 0 mm | - | 1071 W/m² | - |
| 1777403044 | 32.22° C | 63% | 1007 hPa | 0 mm | - | 1036 W/m² | - |
| 1777402982 | 32.22° C | 62% | 1006.9 hPa | 0 mm | - | 1036 W/m² | - |
| 1777402923 | 32.22° C | 63% | 1006.9 hPa | 0 mm | - | 1036 W/m² | - |
| 1777402864 | 32.22° C | 63% | 1007 hPa | 0 mm | - | 1081 W/m² | - |
| 1777402804 | 32.22° C | 64% | 1007.1 hPa | 0 mm | - | 939 W/m² | - |
| 1777402744 | 32.22° C | 64% | 1007.2 hPa | 0 mm | - | 1067 W/m² | - |
| 1777402684 | 32.22° C | 63% | 1006.9 hPa | 0 mm | - | 1059 W/m² | - |
| 1777402623 | 32.22° C | 65% | 1007.1 hPa | 0 mm | - | 1059 W/m² | - |
| 1777402563 | 32.22° C | 65% | 1007.1 hPa | 0 mm | - | 1059 W/m² | - |
| 1777402504 | 32.22° C | 64% | 1007.1 hPa | 0 mm | - | 937 W/m² | - |
| 1777402442 | 32.22° C | 64% | 1007.1 hPa | 0 mm | - | 937 W/m² | - |
| 1777402384 | 32.22° C | 64% | 1007.2 hPa | 0 mm | - | 937 W/m² | - |
| 1777402322 | 32.22° C | 64% | 1007.2 hPa | 0 mm | - | 1106 W/m² | - |
| 1777402265 | 32.78° C | 64% | 1007.3 hPa | 0 mm | - | 920 W/m² | - |
| 1777402203 | 32.78° C | 64% | 1007.2 hPa | 0 mm | - | 920 W/m² | - |
| 1777402143 | 32.78° C | 64% | 1007.1 hPa | 0 mm | - | 853 W/m² | - |
| 1777402083 | 32.78° C | 64% | 1007.2 hPa | 0 mm | - | 1030 W/m² | - |
| 1777402025 | 32.22° C | 64% | 1007.2 hPa | 0 mm | - | 1053 W/m² | - |
| 1777401963 | 32.22° C | 64% | 1007.2 hPa | 0 mm | - | 1053 W/m² | - |
* Rain latest hour (hover to see other rain measurements)
** Current wind speed in m/s (hover to see current wind gust speed)